STARLINK-32149 (60292 NORAD) Tracking and Keplerian Element Data

This shows tracking and keplerian element data for the satellite.

Feedback or suggestion? Click here.




ElementValue
Catalog60292
NameSTARLINK-32149
Epoch Orbit1301
Epoch Day286.67848101
Epoch Year2024
RAAN275.4931
Inclination53.1575
Eccentricity0.0001631
Argument of Perigee98.0942
Mean Anonmoly262.0244
Mean Motion15.3018661
Decay Rate0.00023416
L11 60292U 24132Q 24286.67848101 .00023416 00000+0 80055-3 0 9994
L22 60292 53.1575 275.4931 0001631 98.0942 262.0244 15.30186610 13017



Live tracking and technical data element details for STARLINK-32149 (NORAD 60292). STARLINK-32149 can be tracked NOW for your location showing map with azimuth and elevation plus other details from your city location.







IsCatalogInMostPopularTable: catalog: 60292, numindb: 11
Update: records affected: 1



GetName: 60292 STARLINK-32149

Hit Count: updated at: Thu, 23 Jan 2025 15:14:32 GMT